STARLINK-35949, 66630

Orbit data source: Space-Track

STARLINK-35949, 66630 is a payload satellite owned by SpaceX/Seattle (US) in LEO that was launched on Sun, 23 Nov 2025 UTC via an FALCON 9 launch vehicle from the Air Force Western Test Range (AFWTR). Payload-class satellites include a variety of spacecraft equipped with specific instruments for various scientific and technological missions. These include communications satellites like Starlink; space stations such as the ISS; scientific satellites like the Hubble; Earth observation satellites from companies like Planet Labs, Umbra, and HawkEye 360; GPS; miniature CubeSats for education and research; and military/defense satellites.

Loading next visibility...
Identifier
66630, 2025-271P
Orbit
LEO
Country
Flag of USUS
Related business
Manufacturer
SpaceX/Seattle
Mission
Operational Commercial Communications
Bus & Motor
STARLINK V2MO, Unknown motor
Mass
575 kg wet, ~530 kg dry
Launch date (UTC)
2025-11-23 (5 months ago)
Launch vehicle
FALCON 9
Launch site
Air Force Western Test Range (AFWTR)
Object type
Payload
Rocket body
Debris
Shape & HBR
Box + 2 Pan, 17.7 m
Radar Cross Section
36.964 m²

Expand to show TLE details & history
Last TLE update: 8 hours ago

TLE from 8 hours ago
0 STARLINK-35949
1 66630U 25271P   26128.25002315 -.01545287  00000-0 -47520-1 0  9998
2 66630  53.1600 222.1004 0001042  65.5178 243.9384 15.36508594  5877
Epoch: 2026-05-08T06:00Z
TLE epoch observation values (Epoch: 2026-05-08T06:00:02.000Z)
Latitude
-38.37886°
Longitude
-130.15397°
Altitude
469.257 km
Speed
7.631 km/s
True Right ascension
12h 23m 45s
True Declination
-38° 12' 16"
Sunlit
Object was in full shadow at epoch
Visualization orbit readout
Latitude
Unknown
Longitude
Unknown
Altitude
Unknown
Speed
Unknown
Apparent Right ascension
Unknown
Apparent Declination
Unknown
Sunlit
N/A
Visualization observer readout
Local Sidereal Time
21:45:16
Azimuth
Unknown
Elevation
Unknown
Doppler factor
Unknown
Orbital elements
Apogee altitude
457.413 km
Perigee altitude
455.988 km
Semi-major axis
6,834.837 km
Eccentricity
0.0001
Inclination
53.16°
RAAN
222.1004°
Arg. of periapsis
65.5178°
True anomaly
243.92767°
Mean anomaly
243.9384°
Eccentric anomaly
243.93304°
Mean motion
3.84106 °/min
Orbital period
93.72 mins
BSTAR
-0.04752
Loading maneuver chart data...
Computing Atmospheric mass density...
Loading historical data...
Loading historical data...
Loading historical data...
Loading historical data...
Loading historical data...
Loading historical data...
Loading historical data...

Documentation

Showing up to 5 results
|